TimeCDT,TemperatureF,Dew PointF,Humidity,Sea Level PressureIn,VisibilityMPH,Wind Direction,Wind SpeedMPH,Gust SpeedMPH,PrecipitationIn,Events,Conditions,WindDirDegrees,DateUTC
12:15 AM,71.2,68.0,89,30.08,10.0,East,3.5,-,N/A,,Mostly Cloudy,80,2013-08-23 05:15:00
12:35 AM,71.2,68.0,89,30.08,10.0,East,3.5,-,N/A,,Overcast,100,2013-08-23 05:35:00
12:55 AM,70.9,68.0,91,30.08,10.0,Calm,Calm,-,N/A,,Overcast,0,2013-08-23 05:55:00
1:15 AM,71.2,68.2,90,30.08,10.0,Calm,Calm,-,N/A,,Overcast,0,2013-08-23 06:15:00
1:35 AM,71.2,68.2,90,30.08,10.0,Calm,Calm,-,N/A,,Overcast,0,2013-08-23 06:35:00
1:55 AM,71.6,68.0,88,30.08,10.0,Calm,Calm,-,N/A,,Mostly Cloudy,0,2013-08-23 06:55:00
2:15 AM,71.4,68.0,89,30.08,10.0,Calm,Calm,-,N/A,,Mostly Cloudy,0,2013-08-23 07:15:00
2:35 AM,70.3,68.0,92,30.08,10.0,Calm,Calm,-,N/A,,Overcast,0,2013-08-23 07:35:00
2:55 AM,70.3,68.0,92,30.07,10.0,Calm,Calm,-,N/A,,Mostly Cloudy,0,2013-08-23 07:55:00
3:15 AM,70.2,67.3,91,30.07,10.0,Calm,Calm,-,N/A,,Scattered Clouds,0,2013-08-23 08:15:00
3:35 AM,70.2,67.3,91,30.07,10.0,Calm,Calm,-,N/A,,Mostly Cloudy,0,2013-08-23 08:35:00
3:55 AM,69.8,66.9,91,30.07,10.0,Calm,Calm,-,N/A,,Overcast,0,2013-08-23 08:55:00
4:15 AM,69.4,66.6,91,30.07,10.0,Calm,Calm,-,N/A,,Scattered Clouds,0,2013-08-23 09:15:00
4:35 AM,69.4,66.9,92,30.07,7.0,Calm,Calm,-,N/A,,Clear,0,2013-08-23 09:35:00
4:55 AM,69.1,66.7,92,30.07,7.0,ESE,3.5,-,N/A,,Scattered Clouds,120,2013-08-23 09:55:00
5:15 AM,68.7,66.2,92,30.07,7.0,Calm,Calm,-,N/A,,Scattered Clouds,0,2013-08-23 10:15:00
5:35 AM,68.5,66.4,93,30.07,5.0,Calm,Calm,-,N/A,,Overcast,0,2013-08-23 10:35:00
5:55 AM,69.3,67.1,93,30.07,7.0,Calm,Calm,-,N/A,,Overcast,0,2013-08-23 10:55:00
6:15 AM,69.3,67.1,93,30.07,7.0,Calm,Calm,-,N/A,,Overcast,0,2013-08-23 11:15:00
6:35 AM,69.4,67.1,92,30.07,7.0,Calm,Calm,-,N/A,,Overcast,0,2013-08-23 11:35:00
6:55 AM,69.8,67.3,92,30.07,5.0,Calm,Calm,-,N/A,,Overcast,0,2013-08-23 11:55:00
7:15 AM,69.8,67.3,92,30.07,4.0,SE,3.5,-,N/A,,Mostly Cloudy,130,2013-08-23 12:15:00
7:35 AM,70.0,67.8,93,30.07,4.0,SE,3.5,-,N/A,,Mostly Cloudy,140,2013-08-23 12:35:00
7:55 AM,70.9,68.4,92,30.08,5.0,SE,3.5,-,N/A,,Scattered Clouds,130,2013-08-23 12:55:00
8:15 AM,71.6,68.9,91,30.08,5.0,SE,5.8,-,N/A,,Mostly Cloudy,140,2013-08-23 13:15:00
8:35 AM,72.1,69.3,91,30.09,5.0,SE,4.6,-,N/A,,Mostly Cloudy,140,2013-08-23 13:35:00
8:55 AM,73.6,70.5,90,30.08,7.0,SSE,4.6,-,N/A,,Scattered Clouds,150,2013-08-23 13:55:00
9:15 AM,75.6,70.5,84,30.08,10.0,SSE,8.1,-,N/A,,Mostly Cloudy,150,2013-08-23 14:15:00
9:35 AM,75.9,70.5,83,30.08,10.0,SE,8.1,-,N/A,,Overcast,140,2013-08-23 14:35:00
9:55 AM,77.9,70.9,79,30.07,10.0,SE,6.9,-,N/A,,Scattered Clouds,140,2013-08-23 14:55:00
10:15 AM,80.6,71.1,73,30.07,10.0,SE,8.1,-,N/A,,Clear,140,2013-08-23 15:15:00
10:35 AM,80.6,70.3,71,30.07,10.0,SE,8.1,-,N/A,,Clear,140,2013-08-23 15:35:00
10:55 AM,82.4,71.1,68,30.07,10.0,SE,9.2,-,N/A,,Clear,140,2013-08-23 15:55:00
11:15 AM,83.8,70.7,64,30.07,10.0,SSE,9.2,-,N/A,,Clear,160,2013-08-23 16:15:00
11:35 AM,84.7,71.2,64,30.06,10.0,SSE,9.2,-,N/A,,Clear,150,2013-08-23 16:35:00
11:55 AM,85.6,72.0,63,30.06,10.0,SSE,8.1,-,N/A,,Clear,150,2013-08-23 16:55:00
12:15 PM,86.0,71.8,62,30.05,10.0,SE,9.2,-,N/A,,Clear,140,2013-08-23 17:15:00
12:35 PM,86.4,70.9,60,30.04,10.0,SSE,11.5,-,N/A,,Clear,150,2013-08-23 17:35:00
12:55 PM,87.8,70.3,56,30.04,10.0,SE,11.5,-,N/A,,Clear,140,2013-08-23 17:55:00
1:15 PM,88.9,69.8,53,30.03,10.0,SE,12.7,-,N/A,,Clear,140,2013-08-23 18:15:00
1:35 PM,89.8,68.4,49,30.02,10.0,SSE,16.1,20.7,N/A,,Clear,150,2013-08-23 18:35:00
1:55 PM,88.5,69.3,53,30.02,10.0,SSE,13.8,24.2,N/A,,Scattered Clouds,160,2013-08-23 18:55:00
2:15 PM,89.1,67.5,49,30.02,10.0,SSE,16.1,-,N/A,,Scattered Clouds,150,2013-08-23 19:15:00
2:35 PM,88.9,69.3,52,30.02,10.0,SE,12.7,18.4,N/A,,Scattered Clouds,140,2013-08-23 19:35:00
2:55 PM,89.4,66.7,47,30.02,10.0,SSE,16.1,20.7,N/A,,Clear,150,2013-08-23 19:55:00
3:15 PM,89.4,66.7,47,30.02,10.0,SSE,15.0,-,N/A,,Clear,160,2013-08-23 20:15:00
3:35 PM,89.4,67.8,49,30.02,10.0,SSE,12.7,18.4,N/A,,Clear,150,2013-08-23 20:35:00
3:55 PM,89.1,66.9,48,30.01,10.0,SE,15.0,-,N/A,,Clear,140,2013-08-23 20:55:00
4:15 PM,89.1,67.5,49,30.00,10.0,SE,15.0,18.4,N/A,,Clear,140,2013-08-23 21:15:00
4:35 PM,88.2,67.8,51,30.00,10.0,SSE,13.8,19.6,N/A,,Clear,160,2013-08-23 21:35:00
4:55 PM,87.3,68.0,53,30.00,10.0,SSE,9.2,17.3,N/A,,Clear,160,2013-08-23 21:55:00
5:15 PM,88.0,67.3,50,30.00,10.0,SSE,13.8,-,N/A,,Clear,160,2013-08-23 22:15:00
5:35 PM,87.8,67.6,51,30.00,10.0,SSE,12.7,-,N/A,,Clear,160,2013-08-23 22:35:00
5:55 PM,88.2,66.9,49,29.99,10.0,SSE,15.0,-,N/A,,Clear,160,2013-08-23 22:55:00
6:15 PM,87.1,68.2,53,29.99,10.0,SSE,13.8,18.4,N/A,,Clear,160,2013-08-23 23:15:00
6:35 PM,86.2,68.7,56,29.98,10.0,SSE,11.5,-,N/A,,Clear,150,2013-08-23 23:35:00
6:55 PM,84.2,68.9,60,29.98,10.0,SSE,10.4,-,N/A,,Clear,150,2013-08-23 23:55:00
7:15 PM,82.8,69.3,64,29.97,10.0,SE,10.4,-,N/A,,Clear,140,2013-08-24 00:15:00
7:35 PM,82.0,69.1,65,29.97,10.0,SE,9.2,-,N/A,,Clear,140,2013-08-24 00:35:00
7:55 PM,80.6,68.4,66,29.97,10.0,SE,8.1,-,N/A,,Clear,140,2013-08-24 00:55:00
8:15 PM,79.3,67.6,67,29.97,10.0,SE,9.2,-,N/A,,Clear,130,2013-08-24 01:15:00
8:35 PM,78.1,67.3,69,29.97,10.0,SE,6.9,-,N/A,,Clear,140,2013-08-24 01:35:00
8:55 PM,76.1,67.5,74,29.99,10.0,SE,5.8,-,N/A,,Clear,130,2013-08-24 01:55:00
9:15 PM,75.2,67.5,77,29.99,10.0,SE,5.8,-,N/A,,Clear,130,2013-08-24 02:15:00
9:35 PM,74.5,67.6,79,29.99,10.0,SE,6.9,-,N/A,,Clear,130,2013-08-24 02:35:00
9:55 PM,74.7,67.6,79,29.99,10.0,SE,6.9,-,N/A,,Clear,130,2013-08-24 02:55:00
10:15 PM,74.7,68.2,80,30.00,10.0,SE,6.9,-,N/A,,Clear,130,2013-08-24 03:15:00
10:35 PM,75.2,68.9,81,30.00,10.0,SE,6.9,-,N/A,,Clear,140,2013-08-24 03:35:00
10:55 PM,75.0,68.9,81,30.00,10.0,SE,6.9,-,N/A,,Clear,140,2013-08-24 03:55:00
11:15 PM,74.7,68.9,82,30.00,10.0,SE,6.9,-,N/A,,Clear,140,2013-08-24 04:15:00
11:35 PM,74.5,68.9,83,30.00,10.0,SE,5.8,-,N/A,,Clear,140,2013-08-24 04:35:00
11:55 PM,74.8,68.9,82,30.00,10.0,SE,6.9,-,N/A,,Clear,140,2013-08-24 04:55:00